Buffalo, SD

4:49 PM MST on December 11, 2017 (GMT -0700)
Buffalo

Weather History for K2WX - September, 2012

Change the Weather History Date:

Monday, September 24, 2012

  Actual Average Record
Temperature  
Mean Temperature 59 °F 54 °F  
Max Temperature 81 °F 68 °F 89 °F (2011)
Min Temperature 36 °F 40 °F 24 °F (2000)
Degree Days  
Heating Degree Days 6 11  
Month to date heating degree days 119 162  
Since 1 July heating degree days 154 214  
Cooling Degree Days 0 0  
Month to date cooling degree days 53 40  
Year to date cooling degree days 850 511  
Growing Degree Days 8 (Base 50)    
Moisture  
Dew Point 28 °F    
Average Humidity 40    
Maximum Humidity 64    
Minimum Humidity 15    
Precipitation  
Precipitation 0.00 in 0.04 in 0.25 in (2016)
Month to date precipitation 0.01 1.00  
Year to date precipitation 7.59 13.14  
Sea Level Pressure  
Sea Level Pressure 29.90 in    
Wind  
Wind Speed 5 mph (NW)    
Max Wind Speed 13 mph    
Max Gust Speed 17 mph    
T = Trace of Precipitation, MM = Missing Value Source: NWS Daily Summary

Daily Weather History Graph

Daily Weather History Graph

Search for Another Location

Airport or City:

Trip Planner

Search our weather history database for the weather conditions in past years. The results will help you decide how hot, cold, wet, or windy it might be!

Date:

Astronomy

Sep. 24, 2012 Rise Set
Actual Time 6:44 AM MDT 6:46 PM MDT
Civil Twilight 6:14 AM MDT 7:16 PM MDT
Nautical Twilight 5:39 AM MDT 7:50 PM MDT
Astronomical Twilight 5:04 AM MDT 8:26 PM MDT
Moon 3:47 PM MDT (9/24) 12:48 AM MDT (9/24)
Length of Visible Light 13h 01m
Length of Day
12h 02m
Waxing Gibbous, 71% of the Moon is Illuminated
Sep 24
Waxing Gibbous
Sep 29
Full
Oct 8
Last Quarter
Oct 15
New
Oct 21
First Quarter

Hourly Weather History & Observations

Time (MDT) Temp. Windchill Dew Point Humidity Pressure Visibility Wind Dir Wind Speed Gust Speed Precip Events Conditions
12:56 AM 48.0 °F - 24.1 °F 39% 30.03 in - SSW 3.5 mph - N/A   Unknown
1:56 AM 46.9 °F - 24.1 °F 41% 30.01 in - SSW 3.5 mph - N/A   Unknown
2:56 AM 46.0 °F 43.9 °F 24.1 °F 42% 29.98 in - West 4.6 mph - N/A   Unknown
3:56 AM 45.0 °F 43.5 °F 25.0 °F 46% 29.96 in - West 3.5 mph - N/A   Unknown
4:56 AM 45.0 °F 41.8 °F 25.0 °F 46% 29.96 in - WNW 5.8 mph - N/A   Unknown
5:56 AM 46.9 °F - 25.0 °F 42% 29.95 in - NW 3.5 mph - N/A   Unknown
6:56 AM 36.0 °F 33.3 °F 25.0 °F 64% 29.98 in - SW 3.5 mph - N/A   Unknown
7:56 AM 41.0 °F 38.0 °F 25.0 °F 53% 29.98 in - West 4.6 mph - N/A   Unknown
8:56 AM 51.1 °F - 28.0 °F 41% 29.97 in - West 4.6 mph - N/A   Unknown
9:56 AM 60.1 °F - 28.9 °F 31% 29.96 in - Variable 3.5 mph - N/A   Unknown
10:56 AM 69.1 °F - 30.0 °F 23% 29.93 in - Calm Calm - N/A   Unknown
11:56 AM 73.9 °F - 30.9 °F 21% 29.91 in - NNW 5.8 mph - N/A   Unknown
12:56 PM 75.9 °F - 30.9 °F 19% 29.88 in - NNW 9.2 mph - N/A   Unknown
1:56 PM 79.0 °F - 30.0 °F 17% 29.85 in - North 9.2 mph - N/A   Unknown
2:56 PM 80.1 °F - 30.0 °F 16% 29.83 in - Variable 3.5 mph - N/A   Unknown
3:56 PM 80.1 °F - 28.9 °F 15% 29.81 in - Variable 4.6 mph - N/A   Unknown
4:56 PM 80.1 °F - 28.0 °F 15% 29.81 in - North 6.9 mph - N/A   Unknown
5:56 PM 78.1 °F - 28.0 °F 16% 29.81 in - North 4.6 mph - N/A   Unknown
6:56 PM 73.9 °F - 28.9 °F 19% 29.84 in - North 3.5 mph - N/A   Unknown
7:56 PM 70.0 °F - 28.9 °F 22% 29.84 in - NNW 10.4 mph - N/A   Unknown
8:56 PM 64.9 °F - 28.9 °F 26% 29.84 in - North 11.5 mph - N/A   Unknown
9:56 PM 64.0 °F - 28.9 °F 27% 29.83 in - NNE 3.5 mph - N/A   Unknown
10:56 PM 57.0 °F - 28.9 °F 34% 29.83 in - Calm Calm - N/A   Unknown
11:56 PM 57.0 °F - 28.9 °F 34% 29.82 in - West 5.8 mph - N/A   Unknown